Погода в Херингсдорфе

Германия     54°18′03″N   11°00′37″E
темп.,
°C
ветер,
м/с
пор.,
м/с
влажн.,
%
обл.,
%
осадки,
мм/ч
давл.,
гПа
погр.,
м
17 апреля, сб
сб1723:00+4с488060 0.0 1026149
02:00+4ссз478789 0.0 1025133
05:00+5с478290 0.0 1025142
08:00+6ссв476885 0.0 1025328
11:00+7св45657 0.0 1025423
14:00+8св4666100 0.0 1025502
17:00+8всв587235 0.0 1024360
20:00+7св4883100 0.0 1024248
18 апреля, вс
вс1823:00+6св4786100 0.0 1024206
02:00+6св51086100 0.0 1024378
05:00+5св589483 0.1 1023309
08:00+6всв569298 0.1 1023337
11:00+7всв4688100 0.0 1023328
14:00+9всв5684100 0.0 1023312
17:00+8св6987100 0.0 1023259
20:00+8всв61285100 0.0 1023335
19 апреля, пн
пн1923:00+7св61092100 0.0 1023236
02:00+6всв6994100 0.7 1023242
05:00+6св6990100 0.0 1022260
08:00+6всв598792 0.0 1022309
11:00+7всв5784100 0.0 1022300
14:00+8всв578268 0.0 1022298
17:00+9св69825 0.0 1020248
20:00+7всв612855 0.0 1020201
20 апреля, вт
вт2023:00+6всв612885 0.0 1020207
02:00+5всв49900 0.0 1019167
05:00+5св47930 0.0 1018156
08:00+6св57900 0.0 1018260
11:00+8всв568115 0.0 1017345
14:00+9всв557768 0.0 1016331
17:00+10всв68715 0.0 1015329
20:00+7всв48842 0.0 1015154
21 апреля, ср
ср2123:00+6всв34910 0.0 101462
02:00+5в22870 0.0 101314
05:00+4всв118661 0.0 101210
08:00+6зсз007854 0.0 101163
11:00+10зюз1263100 0.0 1010617
14:00+10зсз136598 0.2 10091053
17:00+6сз71190100 2.7 1009895
20:00+6зсз9137598 3.0 1010928